This demonstration page uses our WeatherBlox Daily Observations layout. Learn more.

Left ArrowRight Arrow

Hourly Observations for July 2, 2019

Temp ( °F °C ) Dew Point ( °F °C ) Humidity (%) Winds ( mph kmh ) Pressure ( in mb ) Visibility ( mi km ) Precip ( " mm )
12:56 am 00:56 Clear 72 22.2 67 19.4 84 84 Calm 29.91 1013 9 14 0.00 0.00
1:56 am 01:56 Clear 71 21.7 67 19.4 87 87 Calm 29.89 1012 10 16 0.00 0.00
2:56 am 02:56 Clear 71 21.7 67 19.4 87 87 NE 6 9 29.90 1012 10 16 0.00 0.00
3:56 am 03:56 Clear 70 21.1 67 19.4 90 90 E 7 11 29.86 1011 10 16 0.00 0.00
4:56 am 04:56 Clear 70 21.1 67 19.4 90 90 Calm 29.86 1011 10 16 0.00 0.00
5:56 am 05:56 Mostly Clear 71 21.7 66 18.9 84 84 S 6 9 29.86 1011 10 16 0.00 0.00
6:56 am 06:56 Mostly Sunny 72 22.2 66 18.9 82 82 WSW 8 13 29.87 1011 10 16 0.00 0.00
8:56 am 08:56 Sunny 75 23.9 67 19.4 76 76 S 3 6 29.87 1012 10 16 0.00 0.00
9:56 am 09:56 Sunny 77 25 68 20 74 74 Calm 29.88 1012 10 16 0.00 0.00
10:56 am 10:56 Mostly Sunny 78 25.6 68 20 71 71 Calm 29.88 1012 10 16 0.00 0.00
11:56 am 11:56 Partly Cloudy 80 26.7 69 20.6 69 69 Calm 29.88 1012 10 16 0.00 0.00
12:56 pm 12:56 Sunny 81 27.2 69 20.6 67 67 SE 5 7 29.88 1012 10 16 0.00 0.00
1:56 pm 13:56 Sunny 83 28.3 71 21.7 67 67 SE 7 11 29.87 1012 10 16 0.00 0.00
2:56 pm 14:56 Sunny 85 29.4 71 21.7 63 63 E 5 7 29.86 1011 10 16 0.00 0.00
3:56 pm 15:56 Mostly Cloudy 88 31.1 69 20.6 54 54 SSE 10 17 29.84 1010 9 14 0.00 0.00
4:56 pm 16:56 Mostly Cloudy 88 31.1 68 20 52 52 S 8 13 29.81 1010 10 16 0.00 0.00
5:56 pm 17:56 Sunny 87 30.6 66 18.9 50 50 ESE 5 7 29.80 1009 10 16 0.00 0.00
6:56 pm 18:56 Sunny 85 29.4 69 20.6 59 59 ESE 3 6 29.78 1009 10 16 0.00 0.00
7:56 pm 19:56 Sunny 83 28.3 69 20.6 63 63 E 9 15 29.79 1009 10 16 0.00 0.00
8:56 pm 20:56 Sunny 78 25.6 70 21.1 76 76 E 5 7 29.78 1009 10 16 0.00 0.00
9:56 pm 21:56 Clear 75 23.9 68 20 79 79 SE 8 13 29.80 1009 10 16 0.00 0.00
10:56 pm 22:56 Clear 72 22.2 68 20 87 87 ENE 5 7 29.84 1011 10 16 0.00 0.00
11:56 pm 23:56 Clear 72 22.2 69 20.6 91 91 ESE 7 11 29.84 1011 10 16 0.00 0.00

Powered by AerisWeather